Date String (YYYY-MM-DD hh:mm:ss) UTC,Instrument flags,Ambient pressure (hPa),Sample flow (lpm),Bypass flow (lpm),Sample temperature (°C),Ambient temperature (°C),ASC tube jacket temperature (°C),LED temperature (°C),Box temperature (°C),Sample RH (%),Span deviation,Mass concentration (μg/m³),Mass concentration (μg/m³),Mass concentration (μg/m³)
DateTimeUTC,F1_M11,P_M11,Q1_M11,Q2_M11,T1_M11,T2_M11,T3_M11,T4_M11,T5_M11,U1_M11,ZSPAN_M11,X0_M11,X2_M11,X1_M11
2023-05-12 12:00:00,,0827.8,5.00,0.00,24.2,22.4,00.0,32.7,25.7,32.3,0000.0,0001.02,0000.48,0000.22
2023-05-12 12:01:00,,0827.8,5.01,0.00,24.1,22.3,00.0,32.7,25.7,32.3,0000.0,0001.08,0000.50,0000.22
2023-05-12 12:02:00,,0827.9,5.00,0.00,24.1,22.3,00.0,32.7,25.7,32.3,0000.0,0001.07,0000.50,0000.22
2023-05-12 12:03:00,,0828.0,5.01,0.00,24.1,22.3,00.0,32.6,25.7,32.2,0000.0,0001.04,0000.48,0000.21
2023-05-12 12:04:00,,0827.9,5.00,0.00,24.1,22.3,00.0,32.6,25.7,32.2,0000.0,0001.00,0000.46,0000.21
2023-05-12 12:05:00,,0827.9,5.00,0.00,24.1,22.3,00.0,32.6,25.7,32.3,0000.0,0000.89,0000.41,0000.20
2023-05-12 12:06:00,,0827.9,5.00,0.00,24.1,22.3,00.0,32.6,25.7,32.2,0000.0,0000.80,0000.38,0000.20
2023-05-12 12:07:00,,0828.0,4.99,0.00,24.1,22.3,00.0,32.6,25.6,32.2,0000.0,0000.79,0000.37,0000.19
2023-05-12 12:08:00,,0828.0,5.00,0.00,24.1,22.3,00.0,32.6,25.6,32.4,0000.0,0000.70,0000.32,0000.18
2023-05-12 12:09:00,,0828.0,4.99,0.00,24.1,22.3,00.0,32.6,25.6,32.5,0000.0,0000.66,0000.31,0000.19
2023-05-12 12:10:00,,0828.1,4.99,0.00,24.0,22.3,00.0,32.6,25.6,32.6,0000.0,0000.60,0000.29,0000.19
2023-05-12 12:11:00,,0828.1,5.01,0.00,24.0,22.3,00.0,32.6,25.6,32.6,0000.0,0000.51,0000.28,0000.19
2023-05-12 12:12:00,,0828.1,5.01,0.00,24.0,22.4,00.0,32.6,25.6,32.6,0000.0,0000.46,0000.26,0000.18
2023-05-12 12:13:00,,0828.1,5.00,0.00,24.0,22.3,00.0,32.6,25.6,32.5,0000.0,0000.37,0000.23,0000.18
2023-05-12 12:14:00,,0828.1,5.00,0.00,24.0,22.3,00.0,32.6,25.6,32.4,0000.0,0000.39,0000.24,0000.18
2023-05-12 12:15:00,,0828.2,4.99,0.00,24.0,22.3,00.0,32.5,25.6,32.4,0000.0,0000.44,0000.26,0000.17
2023-05-12 12:16:00,,0828.2,5.00,0.00,24.0,22.3,00.0,32.5,25.6,32.4,0000.0,0000.59,0000.28,0000.18
2023-05-12 12:17:00,,0828.2,5.00,0.00,24.0,22.3,00.0,32.5,25.6,32.5,0000.0,0000.68,0000.30,0000.17
2023-05-12 12:18:00,,0828.2,5.00,0.00,24.0,22.3,00.0,32.5,25.6,32.6,0000.0,0000.67,0000.30,0000.17
2023-05-12 12:19:00,,0828.2,5.00,0.00,24.0,22.3,00.0,32.5,25.6,32.6,0000.0,0000.71,0000.31,0000.17
2023-05-12 12:20:00,,0828.3,5.00,0.00,24.0,22.3,00.0,32.5,25.6,32.7,0000.0,0000.76,0000.32,0000.17
2023-05-12 12:21:00,,0828.3,5.00,0.00,24.0,22.3,00.0,32.5,25.6,32.7,0000.0,0000.81,0000.34,0000.17
2023-05-12 12:22:00,,0828.3,5.00,0.00,24.0,22.3,00.0,32.5,25.6,32.7,0000.0,0000.81,0000.34,0000.16
2023-05-12 12:23:00,,0828.3,5.00,0.00,24.0,22.3,00.0,32.5,25.6,32.7,0000.0,0000.77,0000.32,0000.16
2023-05-12 12:24:00,,0828.3,5.00,0.00,24.0,22.3,00.0,32.5,25.6,32.7,0000.0,0000.81,0000.33,0000.16
2023-05-12 12:25:00,,0828.3,5.00,0.00,24.0,22.3,00.0,32.5,25.7,32.7,0000.0,0000.87,0000.36,0000.16
2023-05-12 12:26:00,,0828.3,5.01,0.00,24.0,22.3,00.0,32.5,25.6,32.7,0000.0,0000.81,0000.34,0000.16
2023-05-12 12:27:00,,0828.3,4.99,0.00,24.0,22.3,00.0,32.5,25.6,32.7,0000.0,0000.72,0000.34,0000.17
2023-05-12 12:28:00,,0828.4,5.00,0.00,24.0,22.3,00.0,32.5,25.6,32.6,0000.0,0000.66,0000.33,0000.17
2023-05-12 12:29:00,,0828.4,5.00,0.00,24.0,22.3,00.0,32.5,25.6,32.7,0000.0,0000.70,0000.36,0000.17
2023-05-12 12:30:00,,0828.4,5.00,0.00,24.0,22.3,00.0,32.5,25.6,32.7,0000.0,0000.71,0000.36,0000.17
2023-05-12 12:31:00,,0828.4,5.00,0.00,24.0,22.3,00.0,32.5,25.6,32.7,0000.0,0000.72,0000.37,0000.17
2023-05-12 12:32:00,,0828.4,5.00,0.00,24.0,22.3,00.0,32.5,25.6,32.7,0000.0,0000.64,0000.35,0000.17
2023-05-12 12:33:00,,0828.4,5.00,0.00,24.0,22.3,00.0,32.5,25.6,32.7,0000.0,0000.63,0000.34,0000.17
2023-05-12 12:34:00,,0828.4,5.00,0.00,24.0,22.3,00.0,32.5,25.6,32.7,0000.0,0000.66,0000.36,0000.17
2023-05-12 12:35:00,,0828.4,5.00,0.00,24.0,22.3,00.0,32.4,25.6,32.8,0000.0,0000.62,0000.34,0000.17
2023-05-12 12:36:00,,0828.4,5.00,0.00,24.0,22.3,00.0,32.4,25.6,32.9,0000.0,0000.57,0000.32,0000.17
2023-05-12 12:37:00,,0828.5,5.00,0.00,24.0,22.3,00.0,32.4,25.6,32.9,0000.0,0000.62,0000.35,0000.17
2023-05-12 12:38:00,,0828.5,5.00,0.00,24.0,22.3,00.0,32.4,25.6,33.0,0000.0,0000.57,0000.32,0000.17
2023-05-12 12:39:00,,0828.5,5.01,0.00,24.0,22.3,00.0,32.4,25.6,33.0,0000.0,0000.64,0000.34,0000.17
2023-05-12 12:40:00,,0828.5,5.01,0.00,24.0,22.3,00.0,32.4,25.6,33.0,0000.0,0000.60,0000.31,0000.17
2023-05-12 12:41:00,,0828.5,5.00,0.00,24.0,22.3,00.0,32.4,25.5,33.0,0000.0,0000.58,0000.33,0000.18
2023-05-12 12:42:00,,0828.6,5.00,0.00,24.0,22.3,00.0,32.4,25.6,33.0,0000.0,0000.54,0000.32,0000.19
2023-05-12 12:43:00,,0828.6,5.00,0.00,24.0,22.3,00.0,32.4,25.6,33.2,0000.0,0000.58,0000.34,0000.19
2023-05-12 12:44:00,,0828.6,5.00,0.00,24.0,22.3,00.0,32.4,25.6,33.2,0000.0,0000.68,0000.35,0000.19
2023-05-12 12:45:00,,0828.6,5.00,0.00,24.0,22.3,00.0,32.4,25.6,33.2,0000.0,0000.67,0000.34,0000.19
2023-05-12 12:46:00,,0828.6,5.00,0.00,24.0,22.3,00.0,32.4,25.6,33.2,0000.0,0000.67,0000.34,0000.19
2023-05-12 12:47:00,,0828.6,4.99,0.00,24.0,22.3,00.0,32.4,25.6,33.3,0000.0,0000.68,0000.34,0000.20
2023-05-12 12:48:00,,0828.6,5.00,0.00,24.0,22.3,00.0,32.4,25.6,33.2,0000.0,0000.76,0000.34,0000.20
2023-05-12 12:49:00,,0828.6,4.99,0.00,24.0,22.3,00.0,32.4,25.6,33.2,0000.0,0000.78,0000.36,0000.20
2023-05-12 12:50:00,,0828.6,5.00,0.00,24.0,22.3,00.0,32.4,25.6,33.3,0000.0,0000.71,0000.34,0000.20
2023-05-12 12:51:00,,0828.6,5.01,0.00,23.9,22.3,00.0,32.4,25.5,33.3,0000.0,0000.73,0000.34,0000.20
2023-05-12 12:52:00,,0828.7,5.00,0.00,23.9,22.3,00.0,32.4,25.5,33.3,0000.0,0000.70,0000.32,0000.20
2023-05-12 12:53:00,,0828.6,5.00,0.00,23.9,22.3,00.0,32.4,25.5,33.4,0000.0,0000.72,0000.32,0000.19
2023-05-12 12:54:00,,0828.7,5.00,0.00,23.9,22.3,00.0,32.4,25.5,33.4,0000.0,0000.74,0000.33,0000.19
2023-05-12 12:55:00,,0828.7,5.00,0.00,23.9,22.2,00.0,32.4,25.5,33.4,0000.0,0000.65,0000.33,0000.19
2023-05-12 12:56:00,,0828.7,4.99,0.00,23.9,22.2,00.0,32.4,25.5,33.4,0000.0,0000.82,0000.36,0000.20
2023-05-12 12:57:00,,0828.7,5.00,0.00,23.9,22.2,00.0,32.4,25.5,33.4,0000.0,0000.96,0000.37,0000.20
2023-05-12 12:58:00,,0828.8,4.99,0.00,23.9,22.2,00.0,32.4,25.5,33.3,0000.0,0000.95,0000.37,0000.19
2023-05-12 12:59:00,,0828.8,5.00,0.00,23.9,22.2,00.0,32.4,25.5,33.3,0000.0,0000.85,0000.35,0000.19
